Location: Mapua
(41.2500°S, 173.1000°E)
Time: 14:15:28
(UTC+12:00)

Tiangong - Visible Passes

Search period start: 01 July 2022 00:00
Search period end: 11 July 2022 00:00
Orbit: 384 x 388 km, 41.5° (Epoch: 30 June)

Date Brightness Start Highest point End Pass type
(mag) Time Alt. Az. Time Alt. Az. Time Alt. Az.
01 Jul 3.7 05:46:39 15° N 05:47:40 16° NNE 05:49:48 10° ENE visible
01 Jul 1.7 07:20:58 10° WNW 07:24:10 60° NNE 07:27:22 10° E visible
02 Jul 2.2 06:23:03 20° NW 06:24:55 41° NNE 06:28:01 10° E visible
03 Jul 3.7 05:26:58 21° ENE 05:26:58 21° ENE 05:28:32 10° E visible
03 Jul 1.2 06:59:13 11° WNW 07:02:23 81° N 07:05:38 10° E visible
04 Jul 1.4 06:02:57 61° N 06:03:04 62° NNE 06:06:16 10° E visible
05 Jul 4.6 05:06:35 12° E 05:06:35 12° E 05:06:52 10° E visible
05 Jul 1.0 06:38:49 25° W 06:40:33 86° S 06:43:48 10° E visible
06 Jul 2.7 05:42:21 36° E 05:42:21 36° E 05:44:25 10° E visible
06 Jul 1.1 07:14:48 10° W 07:18:03 88° NNW 07:21:18 10° E visible
07 Jul 1.0 06:18:02 55° W 06:18:39 84° S 06:21:54 10° E visible
08 Jul 4.0 05:21:27 19° E 05:21:27 19° E 05:22:28 10° E visible
08 Jul 1.2 06:53:40 16° W 06:56:05 70° NNW 06:59:18 10° ENE visible
09 Jul 1.4 05:57:03 66° ENE 05:57:03 66° ENE 05:59:54 10° E visible
10 Jul 4.8 05:00:26 10° E 05:00:26 10° E 05:00:26 10° E visible
10 Jul 1.6 06:32:39 28° WNW 06:33:59 48° NNW 06:37:07 10° ENE visible
